Regional Weather Roundup
Issued by NWS

Home | Current Version | Previous Version | Graphics & Text | Print | Product List | Glossary On
Versions: 1 2 3 4 5 6 7 8 9 10 11 12 13 14 15 16 17 18 19 20 21 22 23 24 25 26 27 28 29 30 31 32 33 34 35 36 37 38 39 40 41 42 43 44 45 46 47 48 49 50
000
ASUS45 KPSR 021700
RWRAZ

PRELIMINARY ARIZONA REGIONAL HOURLY WEATHER ROUNDUP
NATIONAL WEATHER SERVICE PHOENIX AZ
1000 AM MST TUE SEP 02 2014

NOTE: FAIR INDICATES FEW OR NO CLOUDS BELOW 12,000 FEET WITH NO
SIGNIFICANT WEATHER AND/OR OBSTRUCTIONS TO VISIBILITY.

AZZ001>003-036-021800-
NORTHWEST ARIZONA

CITY           SKY/WX    TMP DP  RH WIND       PRES   REMARKS
KINGMAN        SUNNY     91  38  15 CALM      30.00S
$$

AZZ004>008-015-016-018-021800-
NORTH CENTRAL ARIZONA

CITY           SKY/WX    TMP DP  RH WIND       PRES   REMARKS
GRAND CANYON   SUNNY     77  36  22 S10       30.26S
WILLIAMS       SUNNY     75  36  23 S7        30.32S
PRESCOTT       SUNNY     80  45  28 E3        30.14S
FLAGSTAFF      SUNNY     75  37  25 SW9       30.29S
PAYSON         SUNNY     82  39  21 VRB5      30.17S
PAGE           SUNNY     86  38  18 N3        30.06S
$$

AZZ009>014-017-021800-
NORTHEAST ARIZONA

CITY           SKY/WX    TMP DP  RH WIND       PRES   REMARKS
WINSLOW        NOT AVBL
SAINT JOHNS    SUNNY     80  40  23 CALM      30.20F
WINDOW ROCK    SUNNY     81  38  21 SE3       30.26
$$

AZZ023-021800-
GREATER PHOENIX AREA

CITY           SKY/WX    TMP DP  RH WIND       PRES   REMARKS
PHOENIX        SUNNY     95  45  17 SE10      29.84R
GLENDALE       SUNNY     93  48  21 NE3       29.86R
DEER VALLEY    SUNNY     93  42  17 SE7       29.86S
SCOTTSDALE     SUNNY     94  43  17 SE9       29.88S
MESA-GATEWAY   SUNNY     93  41  16 S7        29.88S
CHANDLER       SUNNY     93  48  21 VRB6      29.86S
$$

AZZ027-028-021800-
SOUTHWEST MARICOPA COUNTY AND PINAL COUNTY

CITY           SKY/WX    TMP DP  RH WIND       PRES   REMARKS
CASA GRANDE    SUNNY     95  46  18 S8        29.88F
GILA BEND      SUNNY     99  39  12 NE2       29.83S
$$

AZZ503-504-507>509-021800-
SOUTHEAST ARIZONA

CITY           SKY/WX    TMP DP  RH WIND       PRES   REMARKS
TUCSON         SUNNY     92  50  23 S5        29.98S
DAVIS-MONTHAN  SUNNY     91  50  24 SE5       29.96F
RYAN FIELD       N/A     91  48  22 CALM      29.96F
NOGALES        SUNNY     85  57  38 SW5       30.07R
SIERRA VISTA   SUNNY     86  46  25 E8        30.14S
SAFFORD        SUNNY     87  39  18 CALM      30.01S
$$

AZZ020-021-025-026-031-021800-
SOUTHWEST ARIZONA

CITY           SKY/WX    TMP DP  RH WIND       PRES   REMARKS
YUMA           NOT AVBL
$$

CAZ031-033-041-043-047-048-061-021800-
SOUTHERN CALIFORNIA

CITY           SKY/WX    TMP DP  RH WIND       PRES   REMARKS
DOWNTOWN L.A.  SUNNY     78  62  57 CALM      29.84F
L.A. AIRPORT   MOSUNNY   75  61  61 NE3       29.85F
SAN DIEGO      MOSUNNY   74  60  61 CALM      29.86F
BURBANK        SUNNY     73  59  61 CALM      29.86F
ONTARIO        SUNNY     72  62  71 VRB3      29.87S HAZE
RIVERSIDE      SUNNY     69  62  78 CALM      29.87F
PALM SPRINGS   SUNNY     95  36  12 CALM      29.77S
EL CENTRO NAS  MOSUNNY   92  55  28 E5        29.74R
IMPERIAL       SUNNY     92  52  25 SE3       29.74R
BLYTHE         SUNNY     94  49  21 S8        29.78R
$$

NVZ020-UTZ003-021800-
SOUTHERN NEVADA-UTAH

CITY           SKY/WX    TMP DP  RH WIND       PRES   REMARKS
LAS VEGAS      NOT AVBL
SALT LAKE CITY SUNNY     75  42  30 CALM      30.02F
$$

NMZ009-TXZ055-021800-
NEW MEXICO-WEST TEXAS

CITY           SKY/WX    TMP DP  RH WIND       PRES   REMARKS
ALBUQUERQUE    MOSUNNY   80  37  21 CALM      30.17S
EL PASO        SUNNY     90  44  20 VRB3      30.02S
$$


........................KEY........................
SKY/WX - SKY CONDITION/WEATHER
TMP    - TEMPERATURE IN FAHRENHEIT
DP     - DEW POINT IN FAHRENHEIT
RH     - RELATIVE HUMIDITY IN PERCENT
WIND   - DIRECTION AND SPEED IN MILES PER HOUR (MPH)
VRB    - VARIABLE WIND DIRECTION
PRES   - MEAN SEA LEVEL PRESSURE IN INCHES OF MERCURY
         F - FALLING PRESSURE   R - RISING PRESSURE
         S - STEADY PRESSURE
VSB    - VISIBILITY IN MILES
HX     - HEAT INDEX IN FAHRENHEIT
WCI    - WIND CHILL INDEX IN FAHRENHEIT
TC     - TEMPERATURE IN CELSIUS WHICH IS ALSO KNOWN AS
         TEMPERATURE IN CENTIGRADE
AFB    - AIR FORCE BASE
         LUKE AFB IS LUKE AIR FORCE BASE
         DAVIS-MONTHAN IS DAVIS-MONTHAN AIR FORCE BASE
NAS    - NAVAL AIR STATION
         EL CENTRO NAS IS EL CENTRO NAVAL AIR STATION
N/A    - NOT AVAILABLE



USA.gov is the U.S. government's official web portal to all federal, state and local government web resources and services.